Regional Weather Roundup
Issued by NWS Upton, NY

Current Version | Previous Version | Text Only | Print | Product List | Glossary On
Versions: 1 2 3 4 5 6 7 8 9 10 11 12 13 14 15 16 17 18 19 20 21 22 23 24 25 26 27 28 29 30 31 32 33 34 35 36 37 38 39 40 41 42 43 44 45 46 47 48 49 50
307 ASUS41 KOKX 260709 RWROKX REGIONAL WEATHER ROUNDUP NATIONAL WEATHER SERVICE NEW YORK NY 300 AM EDT WED JUL 26 2017 NOTE: "FAIR" INDICATES FEW OR NO CLOUDS BELOW 12,000 FEET WITH NO SIGNIFICANT WEATHER AND/OR OBSTRUCTIONS TO VISIBILITY. NYZ071-072-176-178-NJZ106-104-260800- NEW YORK CITY METRO AREA CITY SKY/WX TMP DP RH WIND PRES REMARKS Central Park CLOUDY 66 57 72 VRB5 30.25F Bronx Bot Gard N/A 64 55 72 SE1 30.23F LaGuardia APRT CLOUDY 67 59 75 NE8 30.22S Kennedy INTL CLOUDY 66 60 81 NE6 30.23F Breezy Point N/A 64 N/A N/A E6 N/A Newark/Liberty CLOUDY 67 57 70 NE10 30.22F Teterboro CLOUDY 67 57 70 VRB3 30.21F $$ NYZ177-179-078>081-260800- LONG ISLAND NEW YORK CITY SKY/WX TMP DP RH WIND PRES REMARKS Jones Beach N/A 64 N/A N/A NE9 N/A Matinecock PT N/A 66 N/A N/A NE9 N/A Farmingdale CLEAR 62 58 86 N6 30.22F MacArthur/ISP CLEAR 61 58 90 N3 30.22F Shirley CLEAR 58 57 97 CALM 30.22F Mt Sinai Harb N/A N/A N/A N/A N7 N/A Westhampton CLEAR 53 51 93 N3 30.23F East Hampton FAIR 54 53 96 CALM 30.22R Montauk N/A 63 58 83 N7 30.22F $$ NYZ052-065-067-260800- HUDSON VALLEY CITY SKY/WX TMP DP RH WIND PRES REMARKS White Plains CLOUDY 62 56 80 N3 30.23S Larchmont Harb N/A 64 N/A N/A N5 N/A Croton O-T Hud N/A 63 N/A N/A CALM N/A Newburgh CLOUDY 63 61 94 NE6 30.25F Montgomery CLOUDY 63 60 90 N6 30.24F Poughkeepsie CLEAR 59 58 96 CALM 30.23S Albany CLEAR 58 56 93 CALM 30.24S $$ NJZ001-105-106-008-010-013-015-019>022-104-260800- NEW JERSEY CITY SKY/WX TMP DP RH WIND PRES REMARKS Newark/Liberty CLOUDY 67 57 70 NE10 30.22F Teterboro CLOUDY 67 57 70 VRB3 30.21F Caldwell CLOUDY 65 58 78 E5 30.23F Somerville CLOUDY 66 63 90 CALM 30.20F Linden NOT AVBL Perth Amboy N/A 66 N/A N/A NE8 N/A Sussex CLOUDY 63 61 93 NE6 30.23F Andover N/A 63 60 90 CALM 30.24F Trenton CLOUDY 66 63 90 NE5 30.21F Millville CLOUDY 68 66 93 NE6 30.19F Atlantic City CLOUDY 69 63 81 E5 30.19F Wrightstown CLOUDY 64 63 94 NE5 30.19S Toms River CLOUDY 65 64 97 NW6 30.21F Belmar CLOUDY 67 61 81 NE5 30.22F $$ PAZ047>061-062-071-260800- EASTERN PENNSYLVANIA CITY SKY/WX TMP DP RH WIND PRES REMARKS Philadelphia CLOUDY 68 62 81 E7 30.21F Allentown LGT RAIN 65 62 90 E8 30.22F Scranton CLOUDY 63 60 90 CALM 30.23F $$ CTZ002-004>006-009-010-012-RIZ004-006-007-MAZ004-011-015-260800- SOUTHERN NEW ENGLAND IN CT CITY SKY/WX TMP DP RH WIND PRES REMARKS Bradley INTL CLEAR 56 55 97 CALM 30.24R Hartford CLEAR 58 57 97 CALM 30.23S FOG Danbury CLEAR 56 55 97 CALM 30.25F Wtrbury/Oxford CLEAR 55 50 82 CALM 30.25F Bridgeport CLEAR 61 57 87 N6 30.23F Meriden CLEAR 55 54 96 CALM 30.24R New Haven CLEAR 58 55 90 CALM 30.24S Chester NOT AVBL Groton CLEAR 57 55 93 N5 30.21F Wilimantic CLOUDY 56 55 97 CALM 30.23S IN RI CITY SKY/WX TMP DP RH WIND PRES REMARKS Providence CLEAR 57 55 93 NW3 30.21S Block Island CLEAR 60 56 86 N5 30.21S Westerly CLEAR 57 55 93 CALM 30.22S IN MA CITY SKY/WX TMP DP RH WIND PRES REMARKS Boston CLEAR 61 56 83 W3 30.20F Worcester CLEAR 57 53 86 NW8 30.22F Westfield PTCLDY 54 54 100 CALM 30.24R FOG Provincetown CLEAR 57 55 93 NW7 30.20F Nantucket CLEAR 58 57 97 N8 30.18F $$ ANZ330-335-338-340-345-350-353-355-260800- COASTAL MARINE OBSERVATIONS STATION/POSITION TIME SKY/WX TEMP WIND PRES VSBY WAVE AIR SEA DIR/SP/G HT/PER (UTC) (F) (DEG/KT/KT) (MB) (MI) (FT/S) NY HARB ENTRANCE 0550 67 71 50/ 14/ 16 1022.8 3/ 6 20 S FIRE ISLAND 0650 68 73 50/ 12/ 14 1022.2 3/ 5 GREAT SOUTH BAY 0630 65 75 30/ 8/ 10 N/A 23 SSW MONTAUK P 0550 64 72 1023.1 3/ 5 15 E BARNEGAT LI 0630 71 N/A 3/ 6 HUDSON CANYON 0550 68 74 30/ 12/ 14 1021.7 4/ 5 KINGS POINT 0636 66 71 60/ 1/ 2 1023.3 EXECUTION ROCKS 0645 67 40/ 8/ 10 N/A CENTRAL LI SOUND 0615 65 10/ 6/ 8 N/A 1 EASTERN LI SOUND NOT AVBL ROBBINS REEF 0636 40/ 11/ 12 1023.9 $$ >>>>>>>>>>>>>>>>>>>>>>>>>>>> KEY <<<<<<<<<<<<<<<<<<<<<<<<<<< > < > SKY/WX - Sky Condition/Present Weather < > TMP - Temperature in Fahrenheit < > DP - Dew Point in Fahrenheit < > RH - Relative Humidity in Percent < > WIND - Direction (from) and Speed in MPH < > PRES - Mean Sea Level Pressure (inches of Hg) < > WCI - Wind Chill Index < > VSB - VISIBILITY IN MILES < > HX - HEAT INDEX < > TC - TEMPERATURE IN CELSIUS < > VRB - VARIABLE WIND DIRECTION < > < >>>>>>>>>>>>>>>>>>>>>>>>>>>> KEY <<<<<<<<<<<<<<<<<<<<<<<<<<<

USA.gov is the U.S. government's official web portal to all federal, state and local government web resources and services.